NOAA 16 DEB, 41268

Orbit data source: Space-Track

NOAA 16 DEB, 41268 is space debris in SSO originally from a launch on Thu, 21 Sep 2000 UTC launched from the Air Force Western Test Range (AFWTR). Debris objects in space refer to the collection of defunct objects orbiting the Earth. Examples of debris include non-operational satellites, rocket bodies, and fragments generated from explosions, collisions, or faulty payload assembly.

Loading next visibility...
Identifier
41268, 2000-055FU
Orbit
SSO
Country
Flag of USUS
Related business
Manufacturer
Unknown
Mission
Spacecraft
Bus & Motor
Unknown
Mass
Unknown
Launch date (UTC)
2000-09-21 (26 years ago)
Launch vehicle
Unknown
Launch site
Air Force Western Test Range (AFWTR)
Object type
Payload
Rocket body
Debris
Shape & HBR
Unknown shape, 0.1 m
Radar Cross Section
Medium (>0.1 m² and <1 m²)

Expand to show TLE details & history
Last TLE update: 4 days ago

TLE from 4 days ago
0 NOAA 16 DEB
1 41268U 00055FU  26203.08759474  .00003871  00000-0  16883-2 0  9995
2 41268  98.8580 298.1871 0027544 159.4869 200.7422 14.24302186544798
Epoch: 2026-07-22T02:06Z
TLE epoch observation values (Epoch: 2026-07-22T02:06:08.185Z)
Latitude
-0.00001°
Longitude
-33.19497°
Altitude
832.284 km
Speed
7.427 km/s
True Right ascension
19h 52m 44s
True Declination
0° 00' 00"
Sunlit
Object was in full shadow at epoch
Visualization orbit readout
Latitude
Unknown
Longitude
Unknown
Altitude
Unknown
Speed
Unknown
Apparent Right ascension
Unknown
Apparent Declination
Unknown
Sunlit
N/A
Visualization observer readout
Local Sidereal Time
20:41:50
Azimuth
Unknown
Elevation
Unknown
Doppler factor
Unknown
Orbital elements
Apogee altitude
827.793 km
Perigee altitude
788.206 km
Semi-major axis
7,186.137 km
Eccentricity
0.00275
Inclination
98.858°
RAAN
298.1871°
Arg. of periapsis
159.4869°
True anomaly
200.63077°
Mean anomaly
200.7422°
Eccentric anomaly
200.68645°
Mean motion
3.56287 °/min
Orbital period
101.04 mins
BSTAR
0.0016883
Loading maneuver chart data...
Computing Atmospheric mass density...

Documentation

Showing up to 5 results
|